When you browse on this site, cookies collect data to enhance your experience and personalize the content and advertising you see.
Visit our Privacy Policy to learn more. By continuing to use the site, you agree to this use of cookies and data.

Stündliche Wetter Zhemchuzhnikovo

Heute, 7 Juli, Dienstag

Zeit Temperatur Niederschläge Wind Luftdruck Luftfeuchtigkeit
00:00 +20°C° 0 mm 1 m/S 737 mmHg 88%
01:00 +20°C° 0 mm 1 m/S 737 mmHg 89%
02:00 +19°C° 0 mm 2 m/S 737 mmHg 93%
03:00 +19°C° 0 mm 2 m/S 737 mmHg 93%
04:00 +20°C° 0 mm 2 m/S 737 mmHg 93%
05:00 +20°C° 0 mm 2 m/S 736 mmHg 93%
06:00 +23°C° 0.1 mm 2 m/S 736 mmHg 89%
07:00 +24°C° 0.1 mm 3 m/S 736 mmHg 86%
08:00 +26°C° 0 mm 3 m/S 736 mmHg 82%
09:00 +28°C° 1 mm 3 m/S 736 mmHg 75%
10:00 +29°C° 1 mm 3 m/S 736 mmHg 68%
11:00 +31°C° 1 mm 3 m/S 736 mmHg 60%
12:00 +31°C° 0 mm 3 m/S 735 mmHg 60%
13:00 +32°C° 0 mm 4 m/S 735 mmHg 60%
14:00 +33°C° 0 mm 4 m/S 735 mmHg 60%
15:00 +32°C° 0.4 mm 4 m/S 734 mmHg 66%
16:00 +30°C° 0.4 mm 4 m/S 734 mmHg 72%
17:00 +28°C° 0.4 mm 4 m/S 733 mmHg 78%
18:00 +27°C° 0.2 mm 4 m/S 733 mmHg 82%
19:00 +26°C° 0.2 mm 3 m/S 733 mmHg 85%
20:00 +25°C° 0.2 mm 3 m/S 733 mmHg 88%
21:00 +24°C° 0.8 mm 3 m/S 733 mmHg 89%
22:00 +21°C° 0.8 mm 2 m/S 733 mmHg 90%
23:00 +20°C° 0.8 mm 2 m/S 732 mmHg 92%

Morgen, 8 Juli, Mittwoch

Zeit Temperatur Niederschläge Wind Luftdruck Luftfeuchtigkeit
00:00 +19°C° 0.2 mm 2 m/S 732 mmHg 91%
01:00 +19°C° 0.2 mm 2 m/S 732 mmHg 90%
02:00 +19°C° 0.2 mm 2 m/S 733 mmHg 89%
03:00 +19°C° 0.1 mm 2 m/S 732 mmHg 89%
04:00 +19°C° 0.1 mm 2 m/S 732 mmHg 89%
05:00 +20°C° 0.1 mm 2 m/S 732 mmHg 88%
06:00 +20°C° 0.1 mm 2 m/S 732 mmHg 87%
07:00 +21°C° 0.1 mm 2 m/S 732 mmHg 87%
08:00 +23°C° 0.1 mm 2 m/S 732 mmHg 86%
09:00 +23°C° 0 mm 2 m/S 733 mmHg 84%
10:00 +24°C° 0 mm 2 m/S 733 mmHg 83%
11:00 +24°C° 0 mm 2 m/S 733 mmHg 82%
12:00 +22°C° 0.3 mm 3 m/S 734 mmHg 85%
13:00 +21°C° 0.3 mm 4 m/S 734 mmHg 88%
14:00 +20°C° 0.3 mm 5 m/S 734 mmHg 91%
15:00 +20°C° 1 mm 5 m/S 735 mmHg 91%
16:00 +19°C° 1 mm 4 m/S 735 mmHg 92%
17:00 +19°C° 1 mm 4 m/S 735 mmHg 92%
18:00 +18°C° 0 mm 4 m/S 736 mmHg 92%
19:00 +17°C° 0 mm 4 m/S 736 mmHg 92%
20:00 +15°C° 0 mm 4 m/S 736 mmHg 92%
21:00 +15°C° 0 mm 4 m/S 736 mmHg 92%
22:00 +14°C° 0 mm 4 m/S 737 mmHg 91%
23:00 +14°C° 0 mm 4 m/S 737 mmHg 91%

übermorgen, 9 Juli, Donnerstag

Zeit Temperatur Niederschläge Wind Luftdruck Luftfeuchtigkeit
00:00 +13°C° 0 mm 4 m/S 737 mmHg 91%
01:00 +13°C° 0 mm 4 m/S 738 mmHg 90%
02:00 +13°C° 0 mm 4 m/S 738 mmHg 90%
03:00 +13°C° 0 mm 4 m/S 738 mmHg 90%
04:00 +13°C° 0 mm 4 m/S 738 mmHg 90%
05:00 +12°C° 0 mm 4 m/S 738 mmHg 90%
06:00 +14°C° 0 mm 4 m/S 738 mmHg 85%
07:00 +15°C° 0 mm 4 m/S 739 mmHg 80%
08:00 +18°C° 0 mm 4 m/S 739 mmHg 76%
09:00 +19°C° 0 mm 4 m/S 739 mmHg 73%
10:00 +20°C° 0 mm 4 m/S 739 mmHg 70%
11:00 +21°C° 0 mm 4 m/S 740 mmHg 67%
12:00 +21°C° 0.1 mm 4 m/S 740 mmHg 65%
13:00 +21°C° 0.1 mm 4 m/S 740 mmHg 62%
14:00 +22°C° 0.1 mm 4 m/S 740 mmHg 60%
15:00 +21°C° 0.1 mm 4 m/S 740 mmHg 64%
16:00 +20°C° 0.1 mm 4 m/S 740 mmHg 68%
17:00 +20°C° 0.1 mm 3 m/S 740 mmHg 72%
18:00 +18°C° 0 mm 3 m/S 741 mmHg 77%
19:00 +17°C° 0 mm 3 m/S 741 mmHg 82%
20:00 +15°C° 0 mm 2 m/S 741 mmHg 87%
21:00 +14°C° 0 mm 2 m/S 742 mmHg 89%
22:00 +14°C° 0 mm 2 m/S 742 mmHg 91%
23:00 +13°C° 0 mm 2 m/S 742 mmHg 93%

10 Juli, Freitag

Zeit Temperatur Niederschläge Wind Luftdruck Luftfeuchtigkeit
00:00 +13°C° 0 mm 2 m/S 742 mmHg 94%
01:00 +12°C° 0 mm 2 m/S 743 mmHg 94%
02:00 +12°C° 0 mm 2 m/S 743 mmHg 94%
03:00 +12°C° 0 mm 2 m/S 743 mmHg 93%
04:00 +12°C° 0 mm 2 m/S 744 mmHg 92%
05:00 +13°C° 0 mm 2 m/S 744 mmHg 91%
06:00 +14°C° 0 mm 2 m/S 744 mmHg 86%
07:00 +16°C° 0 mm 2 m/S 745 mmHg 80%
08:00 +18°C° 0 mm 2 m/S 745 mmHg 74%
09:00 +19°C° 0 mm 2 m/S 745 mmHg 69%
10:00 +20°C° 0 mm 3 m/S 745 mmHg 64%
11:00 +21°C° 0 mm 3 m/S 745 mmHg 58%
12:00 +21°C° 0 mm 2 m/S 745 mmHg 57%
13:00 +23°C° 0 mm 2 m/S 745 mmHg 55%
14:00 +23°C° 0 mm 2 m/S 745 mmHg 53%
15:00 +23°C° 0 mm 2 m/S 745 mmHg 55%
16:00 +23°C° 0 mm 2 m/S 745 mmHg 57%
17:00 +23°C° 0 mm 1 m/S 745 mmHg 60%
18:00 +21°C° 0 mm 1 m/S 746 mmHg 66%
19:00 +19°C° 0 mm 1 m/S 746 mmHg 71%
20:00 +16°C° 0 mm 1 m/S 746 mmHg 77%
21:00 +15°C° 0 mm 1 m/S 746 mmHg 79%
22:00 +15°C° 0 mm 1 m/S 746 mmHg 81%
23:00 +14°C° 0 mm 2 m/S 746 mmHg 83%

11 Juli, Samstag

Zeit Temperatur Niederschläge Wind Luftdruck Luftfeuchtigkeit
00:00 +14°C° 0 mm 2 m/S 746 mmHg 84%
01:00 +13°C° 0 mm 2 m/S 746 mmHg 86%
02:00 +13°C° 0 mm 2 m/S 746 mmHg 87%
03:00 +14°C° 0 mm 2 m/S 746 mmHg 87%
04:00 +14°C° 0 mm 2 m/S 746 mmHg 86%
05:00 +15°C° 0 mm 2 m/S 746 mmHg 86%
06:00 +16°C° 0 mm 3 m/S 746 mmHg 82%
07:00 +18°C° 0 mm 3 m/S 746 mmHg 77%
08:00 +20°C° 0 mm 4 m/S 746 mmHg 73%
09:00 +21°C° 0 mm 4 m/S 746 mmHg 70%
10:00 +22°C° 0 mm 4 m/S 746 mmHg 66%
11:00 +23°C° 0 mm 5 m/S 746 mmHg 63%
12:00 +23°C° 0 mm 5 m/S 746 mmHg 63%
13:00 +23°C° 0 mm 5 m/S 746 mmHg 63%
14:00 +25°C° 0 mm 5 m/S 745 mmHg 63%
15:00 +25°C° 0 mm 4 m/S 745 mmHg 66%
16:00 +23°C° 0 mm 4 m/S 745 mmHg 70%
17:00 +24°C° 0 mm 3 m/S 744 mmHg 73%
18:00 +22°C° 0 mm 3 m/S 744 mmHg 78%
19:00 +20°C° 0 mm 3 m/S 744 mmHg 83%
20:00 +19°C° 0 mm 3 m/S 744 mmHg 87%
21:00 +18°C° 0 mm 3 m/S 744 mmHg 88%
22:00 +18°C° 0 mm 3 m/S 744 mmHg 89%
23:00 +17°C° 0 mm 3 m/S 744 mmHg 90%

12 Juli, Sonntag

Zeit Temperatur Niederschläge Wind Luftdruck Luftfeuchtigkeit
00:00 +17°C° 0 mm 3 m/S 744 mmHg 91%
01:00 +16°C° 0 mm 3 m/S 744 mmHg 91%
02:00 +16°C° 0 mm 3 m/S 744 mmHg 91%
03:00 +16°C° 0 mm 2 m/S 744 mmHg 90%
04:00 +17°C° 0 mm 2 m/S 744 mmHg 90%
05:00 +17°C° 0 mm 2 m/S 744 mmHg 89%
06:00 +18°C° 0 mm 2 m/S 744 mmHg 86%
07:00 +19°C° 0 mm 2 m/S 744 mmHg 84%
08:00 +21°C° 0 mm 1 m/S 744 mmHg 82%
09:00 +22°C° 0.1 mm 1 m/S 744 mmHg 81%
10:00 +22°C° 0.1 mm 1 m/S 744 mmHg 81%
11:00 +23°C° 0.1 mm 2 m/S 744 mmHg 81%
12:00 +23°C° 0.9 mm 2 m/S 744 mmHg 81%
13:00 +24°C° 0.9 mm 2 m/S 743 mmHg 80%
14:00 +24°C° 0.9 mm 2 m/S 743 mmHg 80%
15:00 +24°C° 1.4 mm 2 m/S 743 mmHg 82%
16:00 +24°C° 1.4 mm 2 m/S 743 mmHg 83%
17:00 +23°C° 1.4 mm 2 m/S 742 mmHg 85%
18:00 +21°C° 0.7 mm 2 m/S 742 mmHg 88%
19:00 +20°C° 0.7 mm 2 m/S 742 mmHg 90%
20:00 +19°C° 0.7 mm 2 m/S 742 mmHg 93%
21:00 +18°C° 0.1 mm 2 m/S 742 mmHg 94%
22:00 +18°C° 0.1 mm 2 m/S 742 mmHg 94%
23:00 +17°C° 0.1 mm 2 m/S 741 mmHg 94%
Mehr zeigen